Theta_e
344 348 351 350 353 355 355 356 354 354 354 353 354 353 352 351 351 349 348 348 349 348 349 349 351 352 352 352 351 350 351 352 351 351 351 350 349 349 349 348 349 349 349 349 348 348 350 352 351 351 351 351 351 351 351 351 350 349 348 347 346 347 349 349 349 349 349 350 351 351 351 351 351 352 352 353 353 352 351 351 351 348 351 349 349
343 348 350 352 352 355 355 354 354 354 354 354 353 353 352 351 350 349 348 348 348 349 349 349 349 350 351 350 350 350 350 351 351 351 350 350 349 349 350 350 350 349 349 349 347 347 348 349 350 349 348 348 347 348 348 348 348 347 347 346 346 344 346 348 347 348 347 348 350 349 350 350 352 351 352 352 353 352 350 350 350 349 349 349 349
344 349 349 351 350 354 355 354 354 354 353 354 353 352 351 350 350 349 348 348 348 348 349 348 349 349 349 349 349 349 349 350 350 351 351 350 349 349 348 348 347 346 347 346 346 345 345 346 346 345 344 343 343 343 343 344 345 345 346 346 345 344 344 346 347 347 347 348 348 347 346 348 349 350 351 352 351 351 349 349 349 348 347 349 348
343 347 348 351 348 351 355 355 353 352 353 353 353 352 351 350 349 349 348 348 347 348 348 348 348 348 347 347 348 349 349 349 350 350 351 350 349 348 348 347 347 347 346 346 346 346 346 345 345 345 344 343 342 341 340 340 341 342 343 344 344 344 343 345 347 347 347 347 348 346 344 344 347 349 350 350 351 351 348 348 349 349 348 349 348
344 347 348 350 353 350 353 355 353 352 352 352 351 351 351 350 349 349 348 347 347 348 348 347 347 346 347 347 347 348 348 349 349 349 350 349 349 348 347 347 346 346 346 346 346 346 346 345 344 343 342 340 339 339 339 339 339 339 340 342 343 343 343 342 345 346 347 346 347 345 343 346 346 347 348 350 350 348 347 347 347 348 348 347 348
344 348 348 349 351 354 349 354 354 353 353 352 351 351 351 350 349 348 347 347 348 348 347 346 346 346 346 347 347 347 348 348 348 349 348 349 349 348 347 347 347 346 347 346 345 345 344 344 344 342 340 339 337 336 335 336 337 338 339 339 340 342 343 342 343 345 346 344 342 344 343 344 344 346 347 347 347 346 346 346 347 347 346 346 347
345 347 347 348 350 350 346 354 354 353 353 352 351 351 350 350 349 348 347 347 348 348 347 346 346 346 346 347 348 347 347 347 347 348 348 349 349 348 348 347 346 345 346 347 346 345 344 344 342 341 339 336 334 333 333 333 334 336 337 339 340 341 343 343 343 343 344 343 340 340 342 346 344 345 346 347 347 346 345 346 345 345 345 344 345
347 348 348 348 350 349 347 353 354 353 352 352 351 351 350 349 348 348 348 348 348 348 347 346 346 345 347 347 346 346 346 347 346 347 347 347 348 348 348 347 345 345 345 346 346 344 343 343 342 340 338 335 333 331 330 331 332 333 335 338 339 341 342 341 341 341 339 340 340 340 340 343 345 345 346 346 346 346 345 344 344 344 344 343 342
344 347 348 347 351 346 348 352 353 352 352 352 350 351 350 349 349 348 348 348 348 348 347 345 345 345 346 346 346 345 346 346 346 346 346 347 348 348 347 345 345 345 344 345 345 344 343 342 341 339 336 333 331 330 329 329 330 333 334 337 337 341 340 339 340 339 342 340 339 340 341 341 342 343 345 347 346 345 344 343 342 343 343 341 341
343 347 348 347 354 344 348 352 353 352 352 351 351 350 350 349 349 348 348 348 347 347 346 346 345 345 346 346 346 345 346 345 346 346 347 347 347 346 345 346 344 343 343 343 342 342 342 342 340 337 335 333 331 329 328 328 330 332 335 336 338 339 339 338 339 339 338 339 341 340 342 347 342 342 345 345 346 344 341 341 340 340 341 341 341
342 347 348 348 355 344 349 352 352 352 350 351 350 350 349 348 349 348 348 348 347 347 346 345 344 345 346 346 347 346 346 346 346 346 346 346 345 345 345 345 344 343 342 342 343 343 343 342 339 336 334 332 330 328 327 328 329 332 335 335 337 336 337 337 337 343 339 341 340 339 338 340 342 343 344 344 344 341 339 338 337 337 336 337 337
342 346 348 351 345 343 347 350 352 351 351 350 349 350 349 349 348 348 348 348 347 347 346 347 346 346 346 346 347 346 346 345 346 346 346 345 344 343 343 343 343 342 342 342 343 344 343 340 338 336 333 331 329 328 327 326 330 333 333 334 335 335 335 336 338 338 339 339 340 339 340 337 340 341 343 344 343 341 339 337 336 336 336 336 336
344 345 345 352 352 338 344 348 350 351 351 350 350 349 349 349 348 348 348 348 348 347 346 346 347 346 345 346 347 346 347 346 345 345 345 345 345 344 343 343 343 342 342 342 343 343 341 338 337 335 333 330 328 327 326 327 330 332 332 333 334 334 334 334 339 337 337 339 337 339 339 341 342 341 343 342 341 340 339 337 336 336 335 335 335
342 344 345 343 351 342 339 343 347 351 351 351 350 350 350 349 348 348 348 347 348 347 346 346 346 346 345 346 345 346 346 346 344 346 346 346 346 344 343 342 341 342 342 342 341 339 337 336 335 333 332 330 328 326 326 327 330 331 332 333 334 334 332 332 331 336 337 337 336 338 337 340 340 341 341 340 340 339 337 336 335 335 334 334 334
340 344 344 344 348 349 339 338 342 346 348 350 350 350 350 349 349 348 348 348 348 346 347 346 346 346 345 346 345 344 344 345 342 344 343 344 343 341 341 340 341 342 341 339 338 337 336 336 334 332 330 328 327 325 325 327 330 331 332 332 332 331 328 332 333 335 335 333 335 333 338 340 340 340 339 338 338 337 336 334 335 335 332 333 333
340 341 342 342 343 349 348 340 336 340 343 346 347 348 349 348 348 349 349 348 348 347 347 347 346 347 346 346 344 343 343 343 343 343 344 343 342 341 341 341 340 340 339 338 337 336 335 334 333 331 328 326 325 324 324 327 328 329 329 329 328 329 327 325 333 334 333 332 335 335 337 338 339 337 337 336 336 336 334 334 334 333 331 331 331
338 339 340 340 341 341 344 347 344 332 336 340 341 343 346 347 347 348 348 348 348 348 348 347 347 347 347 347 346 343 343 343 343 343 343 342 341 340 339 339 340 339 338 337 336 335 334 333 331 329 327 325 323 324 324 326 327 327 327 326 326 327 326 324 332 332 331 333 335 335 335 335 336 337 338 337 336 334 334 334 333 330 329 331 330
337 338 338 339 340 341 341 344 349 348 349 342 335 338 342 345 345 345 345 345 346 347 347 346 347 346 345 342 342 341 342 342 342 343 342 342 341 339 339 339 339 338 337 336 335 334 333 332 330 328 327 324 320 320 321 323 324 325 325 325 325 325 325 321 331 330 331 332 333 333 333 336 335 337 336 336 336 335 334 334 332 329 328 330 330
336 336 337 337 338 340 340 343 345 346 347 347 349 347 335 339 342 341 341 343 343 343 342 343 341 341 339 337 336 335 334 336 336 338 339 337 336 333 337 339 339 337 337 336 335 334 333 331 329 327 325 322 317 316 317 319 320 321 323 323 323 322 319 324 330 327 330 330 331 333 333 334 335 336 334 334 332 332 334 331 329 330 330 330 328
334 335 335 337 338 338 340 340 342 344 346 346 346 348 336 334 338 339 339 340 339 339 339 339 335 332 330 330 328 334 331 335 327 336 332 334 333 334 334 338 338 337 336 335 334 334 333 331 329 326 324 320 315 314 315 316 317 318 319 321 321 315 328 329 329 328 330 325 330 330 331 335 334 336 335 333 331 330 331 329 328 327 329 328 328
325 328 332 334 336 337 337 339 340 342 343 344 345 346 348 332 334 332 332 334 336 335 336 331 325 323 325 323 324 345 344 344 340 343 325 338 327 326 332 336 337 337 336 335 334 333 332 330 328 326 323 319 314 314 314 313 313 316 319 319 314 325 323 326 328 327 328 328 328 326 329 333 332 334 332 331 330 332 330 327 328 327 327 327 326
319 320 323 321 326 335 337 338 339 341 342 344 344 345 350 341 347 346 345 339 333 330 339 346 336 346 326 336 343 343 342 344 343 337 342 335 331 324 326 332 336 335 334 335 334 333 332 330 328 326 323 321 317 320 317 313 312 315 316 313 321 320 322 323 324 325 326 328 326 323 327 331 334 332 331 330 330 330 328 327 328 327 326 327 325
317 319 320 319 321 323 330 336 338 339 341 342 343 344 345 347 347 346 345 338 341 343 345 344 344 344 345 344 340 342 341 340 341 339 339 327 334 322 325 329 333 333 332 334 334 333 331 330 327 325 323 321 326 322 316 318 316 309 309 314 312 315 318 320 321 323 325 323 323 320 323 328 332 331 331 330 328 329 325 326 327 326 325 324 325
316 318 319 323 322 321 321 327 336 339 339 339 342 341 342 343 343 345 344 345 344 344 344 342 344 342 342 344 341 341 342 341 328 325 330 337 332 321 323 324 326 327 326 330 330 331 331 327 326 325 324 323 324 321 318 315 312 310 309 306 308 309 314 315 317 319 321 324 318 317 319 324 329 331 330 329 328 327 324 327 326 326 325 325 325
317 319 321 320 321 321 321 321 330 337 339 339 339 339 341 342 342 342 343 344 344 345 345 343 343 342 342 344 344 343 344 342 341 340 340 339 337 334 331 332 333 334 324 335 333 332 329 329 328 326 327 325 323 321 321 318 314 311 307 305 306 308 309 311 313 314 317 318 313 316 316 318 324 330 330 329 327 326 325 325 326 325 326 326 326
317 318 317 319 320 320 322 321 321 333 337 339 339 339 340 340 341 341 341 342 344 342 343 344 344 343 343 343 341 341 343 342 340 341 338 339 337 336 335 335 337 336 333 334 335 331 332 330 328 326 324 323 322 320 319 318 316 311 308 308 306 307 309 307 308 310 311 314 316 314 314 315 319 324 328 331 331 331 333 327 327 326 328 328 327
315 316 317 317 319 320 321 321 320 329 334 337 338 340 339 339 341 341 339 339 341 341 341 341 342 342 341 340 340 341 342 338 341 340 342 340 338 337 336 338 335 335 336 335 333 332 330 328 327 325 324 323 322 320 318 317 316 314 312 311 310 308 308 309 307 307 309 310 314 311 312 312 314 318 324 328 330 332 332 333 334 334 333 329 329
314 314 315 317 318 319 322 321 319 328 333 334 336 337 339 341 340 341 340 335 337 338 339 342 341 339 339 339 338 340 339 338 338 339 339 339 337 338 336 337 337 336 335 336 335 330 327 328 327 326 324 323 322 322 321 319 317 318 316 316 315 314 313 311 310 310 309 311 311 313 313 311 311 313 317 323 327 329 330 332 333 333 333 334 330
312 313 314 316 318 320 322 323 321 328 332 333 333 335 337 339 341 341 339 335 337 339 339 339 338 336 336 336 335 336 338 338 337 337 338 337 339 337 337 336 336 333 333 333 331 328 328 327 326 325 325 324 323 322 320 320 319 318 317 317 317 316 316 315 314 313 312 310 311 312 312 310 311 312 313 316 320 324 326 328 330 332 333 333 333
310 313 313 315 317 320 322 323 326 329 331 331 333 334 336 338 336 334 334 332 331 330 331 331 331 332 331 330 330 332 334 334 337 337 337 336 337 335 336 334 332 333 332 330 329 329 326 326 325 324 324 323 322 321 321 320 318 318 317 318 317 316 317 315 314 313 312 311 311 310 307 311 307 312 311 313 315 318 321 324 326 329 331 332 332
309 310 310 311 315 319 323 323 325 330 332 331 333 334 333 331 329 328 327 326 326 327 327 327 328 328 329 329 328 328 330 331 331 331 330 329 329 328 328 331 331 330 331 328 328 328 326 325 325 324 323 323 321 321 320 320 320 318 318 317 316 316 316 315 314 314 312 311 310 309 316 307 310 309 311 311 313 314 316 318 321 324 326 329 331
308 307 308 311 313 318 321 325 327 331 331 330 327 326 326 324 324 324 323 323 322 322 322 324 323 325 326 327 327 327 327 327 327 327 327 326 325 324 324 325 325 324 324 325 325 325 323 323 323 323 323 322 321 321 321 320 319 319 318 317 317 316 315 314 314 312 311 313 310 311 310 312 309 309 311 310 310 312 313 315 317 318 321 324 327
306 307 308 310 312 318 320 323 326 325 325 324 322 321 321 321 320 321 321 322 321 320 318 319 320 321 323 323 324 325 325 324 325 325 323 323 324 323 322 321 322 322 322 323 323 323 323 322 322 323 323 322 321 321 321 320 319 318 318 317 317 316 316 315 314 313 312 312 310 308 311 309 308 310 309 310 310 309 311 313 314 316 318 321 324
304 306 308 309 312 317 320 320 319 318 317 319 320 318 316 317 316 316 317 318 318 316 315 316 316 317 319 320 322 322 323 324 324 322 322 321 319 318 318 317 318 319 321 323 323 324 322 322 322 322 319 321 320 320 319 319 319 318 318 317 316 316 316 314 313 313 313 313 312 313 310 309 308 311 311 309 310 309 309 310 311 313 315 317 318
304 305 306 308 312 314 316 314 315 315 313 312 312 311 312 312 312 311 312 313 313 312 311 312 312 313 315 315 318 319 320 321 321 321 320 320 318 316 316 316 317 318 319 320 320 319 320 320 321 321 321 320 320 320 318 318 317 317 317 316 315 315 314 313 313 314 312 315 311 312 312 310 308 309 308 305 308 308 309 308 309 309 310 312 312
303 304 305 309 310 311 313 311 310 310 309 308 308 308 307 308 308 308 308 308 308 308 308 309 309 309 310 310 311 312 315 319 320 320 318 318 317 316 315 315 316 317 316 317 317 316 317 317 316 317 317 319 318 318 318 317 316 314 315 314 314 313 312 313 315 313 312 309 310 310 309 308 308 306 303 307 306 311 309 308 307 309 309 309 310
303 303 305 308 308 309 310 310 308 307 308 307 306 306 306 305 305 305 306 306 305 305 306 307 307 307 307 306 307 308 309 309 311 313 314 314 314 314 314 312 312 311 311 312 311 313 315 315 313 313 314 314 313 311 310 310 310 310 312 312 313 312 312 312 311 309 309 309 307 306 308 308 307 305 306 305 306 305 309 306 308 308 308 310 310
303 304 305 306 307 308 308 308 307 306 306 306 306 305 304 304 303 303 303 303 303 304 304 305 305 306 306 305 306 306 307 307 307 308 308 309 310 309 309 309 309 309 308 307 307 309 310 310 310 311 309 307 305 305 304 305 307 308 309 310 311 311 311 311 309 305 305 305 305 304 304 305 305 305 304 305 305 304 305 306 308 310 309 309 310
302 303 305 307 307 306 307 307 307 307 305 305 305 305 304 303 302 302 301 301 300 300 301 301 302 303 304 305 305 305 305 307 306 306 305 306 306 306 306 307 307 306 306 306 306 307 308 308 308 309 307 305 304 304 303 304 306 307 308 308 308 309 310 309 307 306 306 307 304 304 307 304 304 304 304 305 303 304 304 305 304 305 306 309 309
302 303 304 306 306 306 306 306 307 307 307 306 305 304 303 302 300 300 299 298 298 298 298 299 300 301 302 303 304 304 305 305 306 306 305 305 306 305 305 306 306 305 304 304 304 304 305 307 306 306 306 304 304 303 303 303 305 306 305 306 308 309 307 306 305 305 307 307 304 304 303 302 303 304 304 304 305 304 304 303 303 303 303 305 308
303 304 305 305 304 305 305 304 306 308 307 306 305 304 301 300 299 298 297 297 297 298 298 298 298 298 299 300 301 301 302 303 304 305 305 304 305 305 305 304 304 304 303 302 303 303 303 304 306 305 304 302 301 302 302 303 303 302 304 306 307 307 304 304 303 305 305 304 304 303 302 302 303 303 303 304 304 304 304 304 303 303 303 304 303
301 302 302 303 304 304 304 304 305 305 305 304 302 301 301 300 298 297 297 296 297 296 296 297 297 298 298 298 298 299 299 300 300 301 302 302 302 302 303 303 303 302 302 302 302 302 302 302 303 303 304 301 299 300 301 301 299 297 298 301 304 304 302 302 302 302 302 304 304 302 303 303 302 302 303 303 303 303 303 303 303 303 303 303 303
301 301 302 303 304 304 304 304 304 304 304 303 302 300 300 300 299 298 297 295 297 297 296 296 297 296 296 296 297 297 297 297 298 298 298 299 299 299 299 300 300 301 299 299 299 299 300 300 300 300 301 302 300 301 300 300 296 297 301 300 298 299 299 301 301 301 302 303 303 302 303 301 300 300 301 301 300 301 302 302 302 302 302 302 302
300 300 301 302 302 303 303 303 302 302 301 300 299 299 299 299 299 298 298 297 295 296 296 295 295 295 294 295 295 295 295 295 296 296 296 296 296 296 296 296 296 297 296 294 295 295 295 296 297 298 300 298 298 298 300 299 298 296 293 295 297 299 296 295 295 300 303 302 301 301 301 300 298 298 300 299 298 299 299 299 301 301 302 302 302
299 299 300 301 301 302 303 302 301 300 300 299 299 298 298 297 297 297 297 296 296 295 294 293 293 293 293 293 293 294 294 294 294 295 295 295 295 295 295 294 294 295 294 293 292 293 294 294 294 294 295 295 293 295 297 298 297 298 295 293 293 293 291 292 294 299 298 299 300 300 301 298 295 296 298 298 298 298 297 298 299 300 301 302 302
297 298 299 300 301 301 302 302 302 301 300 300 300 300 299 298 297 296 294 293 292 291 290 290 290 290 291 292 293 293 293 293 294 294 294 294 294 294 294 293 293 293 293 293 292 292 293 293 293 292 292 294 292 291 291 294 294 295 297 296 295 291 290 292 292 287 293 301 299 298 298 297 295 295 298 294 296 296 294 295 298 298 299 300 301
296 297 298 299 300 300 300 300 299 299 300 299 301 300 299 298 297 295 294 292 290 290 291 291 291 291 292 291 292 293 293 292 293 293 293 293 293 293 293 293 292 292 292 292 291 291 292 292 293 292 291 292 292 289 289 289 291 292 293 293 293 295 296 291 286 289 285 291 293 293 295 295 293 294 295 293 295 294 293 294 296 296 298 299 300
296 296 297 297 297 298 298 297 297 297 298 298 298 298 296 295 294 293 292 291 291 290 291 291 292 292 291 291 291 291 292 292 292 292 292 292 293 293 293 292 291 292 291 291 291 292 292 293 292 293 292 291 290 289 289 289 287 288 290 290 290 292 294 295 294 288 285 283 285 293 297 292 292 292 292 292 293 293 292 293 295 295 296 298 299
295 295 295 296 296 296 296 296 296 296 296 297 296 296 296 295 293 293 291 291 291 291 291 292 291 292 291 291 291 290 290 291 292 292 292 292 292 292 292 291 291 291 291 292 291 292 291 291 291 291 291 291 291 290 289 289 289 288 289 289 289 288 289 290 290 289 285 283 283 285 285 289 290 293 290 292 292 292 292 293 294 294 295 297 297
294 295 295 295 296 296 295 295 295 295 295 296 296 295 295 294 293 292 292 291 291 291 292 291 291 292 290 290 291 290 290 290 290 291 291 291 291 291 291 291 290 290 290 291 291 290 291 291 291 290 290 290 291 290 289 289 290 289 289 289 287 287 287 287 287 286 286 287 283 283 285 284 283 286 289 290 291 291 292 293 293 293 295 295 295
293 294 294 295 295 295 294 294 294 294 295 295 295 294 295 294 293 293 292 292 292 292 291 291 291 291 290 290 290 290 290 289 289 290 290 291 290 290 290 290 290 289 289 289 289 290 289 289 290 290 289 289 289 289 289 290 289 289 289 288 287 287 285 285 285 285 285 284 283 283 284 285 285 284 287 289 289 291 292 293 292 292 293 293 293
Wind_Speed
5 7 11 11 6 8 12 12 13 13 13 13 14 14 14 13 12 11 9 9 9 9 9 9 10 9 9 9 9 9 9 10 10 10 10 10 11 11 12 13 13 13 13 14 13 13 14 14 15 16 16 17 16 16 15 15 16 15 15 14 14 14 13 13 12 12 10 10 12 13 12 12 13 13 14 15 16 15 14 14 10 9 8 9 12
11 9 11 11 5 6 11 11 13 13 13 13 13 13 14 13 12 11 10 9 9 9 9 9 9 10 10 9 9 9 10 10 10 11 10 9 11 12 13 13 13 13 14 14 14 14 13 15 16 16 16 15 16 15 15 14 14 13 13 13 13 13 12 11 11 10 9 9 8 10 11 13 13 13 14 15 16 16 15 15 13 10 8 12 12
10 10 10 11 6 3 8 11 11 13 12 13 12 12 13 12 10 10 10 10 9 9 8 9 8 9 8 9 8 9 9 10 10 10 10 10 11 11 12 13 13 13 13 13 14 14 14 15 15 15 15 15 15 14 14 13 12 12 12 12 12 11 11 10 9 8 7 6 6 5 12 11 12 13 14 15 15 16 16 16 15 12 10 15 14
9 9 10 12 7 3 5 10 10 11 11 12 12 12 12 11 10 10 10 9 8 8 8 8 8 8 8 8 8 8 8 9 10 11 10 11 11 11 11 12 13 13 13 13 14 14 14 14 15 15 14 14 13 14 13 12 12 11 11 11 11 10 9 9 8 7 7 7 5 6 3 6 9 13 14 14 16 16 14 15 15 15 15 16 14
8 9 10 11 9 5 5 9 12 10 12 12 12 12 12 11 10 10 10 9 9 8 7 8 7 7 7 7 8 8 8 8 9 10 10 10 11 11 11 12 13 12 13 13 13 13 13 14 15 15 14 13 13 12 12 11 11 11 11 10 10 9 9 7 7 6 7 8 7 6 5 7 7 12 13 14 15 14 14 14 15 16 15 14 16
7 8 9 11 10 10 3 10 12 12 11 12 12 13 13 11 10 9 9 9 8 8 7 7 7 7 7 7 7 7 7 7 8 8 9 10 11 11 11 11 12 11 12 12 12 13 13 14 14 14 14 13 13 13 12 11 10 10 10 9 9 9 8 7 6 6 8 9 11 1 6 8 6 8 12 13 13 13 13 15 15 15 16 16 15
7 7 8 11 10 10 6 9 11 12 13 13 12 13 14 12 11 9 9 9 8 8 7 7 7 7 7 7 6 6 6 6 7 7 8 10 10 10 11 10 10 10 11 11 13 12 12 13 13 13 13 12 12 12 12 11 10 9 9 9 8 8 7 7 7 8 8 8 2 4 6 6 6 6 11 12 12 12 13 14 15 15 16 16 16
5 6 7 10 9 11 7 8 10 11 13 13 13 13 13 12 12 10 9 9 8 8 7 7 6 7 6 6 6 6 6 6 6 6 8 9 10 9 9 10 10 10 10 11 11 12 12 13 12 12 12 11 11 11 11 11 10 9 9 9 8 7 8 7 6 6 9 5 4 4 4 6 6 6 11 12 13 14 12 12 13 14 15 14 13
5 8 7 8 8 15 9 8 10 11 13 13 12 13 12 12 10 10 10 9 9 8 8 7 6 6 6 6 5 5 5 5 6 6 6 8 10 9 10 10 9 10 9 10 11 11 11 11 11 11 11 11 11 11 11 10 10 10 9 9 8 7 7 7 6 6 7 2 3 5 6 4 6 6 9 13 14 15 16 13 11 13 14 13 12
5 7 7 6 9 11 9 8 10 12 12 12 12 13 12 11 10 10 10 9 9 8 8 7 6 6 5 4 4 5 4 5 6 5 6 7 8 8 10 10 10 9 9 10 8 9 11 11 11 11 11 11 11 11 11 10 10 10 9 9 7 8 7 6 6 6 5 2 3 4 4 6 6 7 10 12 13 14 13 11 9 9 10 13 13
5 6 6 5 12 11 8 4 8 9 9 11 13 12 11 10 10 10 9 9 9 8 9 8 7 6 5 5 3 4 4 4 6 5 5 6 6 8 8 8 10 10 9 10 10 11 13 11 11 11 11 12 12 11 11 11 11 10 10 8 8 7 7 7 8 4 3 3 3 3 3 4 7 6 8 11 12 12 11 11 11 11 12 12 12
5 4 6 8 10 9 8 4 6 10 10 10 11 12 11 10 10 9 8 8 8 8 7 8 6 6 6 4 3 4 5 4 5 5 6 6 8 7 6 7 9 10 11 10 12 14 14 12 12 11 12 12 12 12 11 11 11 11 10 9 8 7 7 8 7 3 1 2 4 4 5 7 7 7 9 10 11 11 11 12 12 12 13 12 12
5 3 6 9 8 7 6 3 4 7 10 11 11 12 12 11 11 10 9 8 8 8 7 7 7 5 4 2 4 5 5 6 5 6 6 9 9 9 6 8 11 10 11 12 13 15 12 12 12 12 12 12 12 12 11 11 11 11 10 9 8 8 7 8 6 1 1 3 3 2 2 6 6 7 9 10 10 10 11 12 12 12 13 12 12
4 3 2 5 7 8 6 3 3 6 9 11 12 11 12 12 11 11 10 9 8 9 6 6 6 4 4 2 2 3 6 4 5 7 8 10 9 9 9 8 9 11 12 14 14 12 12 12 13 13 12 13 12 12 12 11 11 11 11 9 8 8 10 9 4 2 3 2 3 5 3 7 5 7 8 9 9 9 10 10 10 11 12 11 11
4 3 3 2 7 7 7 2 4 2 5 8 8 9 10 11 10 10 10 10 8 9 8 5 5 4 3 3 0 4 1 4 3 3 5 6 7 7 7 7 8 12 13 14 12 11 11 12 13 12 13 12 12 12 11 12 11 12 11 10 9 8 9 5 2 3 3 3 3 2 5 5 7 7 6 6 8 9 9 9 11 11 10 10 10
5 2 1 2 2 7 7 5 2 3 2 3 7 7 7 9 8 9 9 9 8 9 9 7 5 4 5 2 5 2 3 2 2 5 7 8 7 8 7 8 10 13 13 13 12 11 11 12 12 12 12 13 12 11 12 12 12 12 11 11 9 9 10 7 2 3 2 2 3 2 4 6 10 9 9 6 7 8 7 9 10 10 10 9 9
4 3 1 2 2 3 5 8 6 3 2 2 4 6 7 7 8 8 8 7 7 8 8 8 7 6 5 5 7 5 3 1 4 7 7 9 8 8 5 7 12 13 12 12 11 11 12 12 12 12 12 12 12 12 11 12 12 12 11 10 10 9 9 8 2 3 4 5 3 3 7 7 10 9 10 11 6 5 7 9 9 9 9 8 9
4 2 2 3 3 3 3 6 9 7 8 6 4 6 6 7 7 7 6 5 6 7 6 6 6 6 5 5 7 7 6 5 6 6 6 9 10 10 5 9 12 12 12 11 11 11 12 11 11 11 12 12 11 11 11 11 12 12 10 10 9 9 10 9 3 4 4 2 1 2 7 10 11 9 7 7 7 8 9 10 9 8 7 7 9
4 4 3 2 3 2 3 4 7 8 9 8 8 7 9 8 7 6 6 5 5 6 6 5 5 6 5 6 8 7 7 8 7 7 7 8 9 9 7 10 12 12 11 11 11 12 12 10 11 11 10 11 11 10 10 11 11 11 11 9 8 8 10 7 5 3 0 1 2 6 7 12 11 9 5 5 6 7 9 9 9 8 6 8 8
4 3 3 2 1 2 3 4 5 7 8 8 8 8 8 9 8 6 6 6 6 6 6 5 5 6 6 7 8 7 6 6 9 7 8 9 8 8 8 10 11 11 11 10 11 12 12 10 10 10 9 9 9 9 10 10 10 10 10 9 8 10 5 2 3 3 3 4 4 7 10 12 10 8 6 7 6 6 8 9 8 7 7 7 6
2 4 3 2 2 2 3 3 5 6 7 7 7 7 8 9 8 10 9 8 6 6 6 6 6 4 5 5 6 5 6 6 7 7 8 7 6 9 10 10 10 9 9 10 11 12 11 10 10 9 8 6 7 8 8 8 8 7 7 8 11 4 5 4 4 3 4 2 5 6 13 12 9 9 7 6 7 9 7 7 6 6 6 4 5
3 2 3 3 1 2 4 4 4 6 6 5 5 5 7 8 10 9 9 8 8 7 7 6 6 6 4 4 5 6 5 5 6 9 7 7 5 7 9 9 8 8 8 8 10 11 10 10 10 9 7 6 6 2 4 5 5 5 4 8 5 5 5 5 4 3 3 3 6 8 12 12 12 8 7 6 5 6 7 4 4 5 6 5 4
4 4 3 5 3 3 2 4 4 5 6 6 5 5 6 7 8 8 7 9 8 8 8 8 7 7 7 6 6 5 5 5 4 4 6 8 8 7 10 9 8 8 7 8 9 9 9 8 8 7 6 6 4 4 4 3 2 3 2 3 5 4 5 4 4 3 3 3 5 10 11 11 11 7 6 5 4 5 5 2 2 4 4 3 3
5 4 4 3 5 4 4 4 4 5 5 6 5 5 6 6 5 6 7 7 7 7 7 7 5 5 6 5 5 3 3 2 8 10 10 7 6 4 5 10 9 9 9 7 8 8 8 6 4 4 5 1 4 4 4 3 3 3 3 3 3 4 4 4 4 4 3 4 5 9 10 10 10 9 6 5 3 3 4 4 3 2 3 3 3
5 5 4 5 6 6 5 4 4 5 5 5 5 5 5 4 5 5 6 5 6 6 5 5 4 3 5 5 5 4 3 3 5 5 6 6 7 7 5 5 5 6 8 5 5 6 5 4 2 4 5 4 4 5 4 4 4 3 3 3 3 3 3 3 3 4 3 3 5 8 9 10 10 9 7 6 4 2 3 4 3 3 4 4 4
5 5 7 6 6 6 5 4 5 5 6 6 5 4 3 4 4 5 4 5 4 4 4 4 3 4 2 3 3 5 3 1 3 5 4 5 6 7 7 6 6 4 5 3 3 5 3 2 4 5 4 5 5 5 4 4 4 4 4 3 3 2 2 2 2 3 3 3 4 8 7 9 10 9 8 7 8 8 9 6 5 5 7 8 7
6 7 6 6 6 7 5 4 4 5 7 6 5 4 4 4 3 2 4 4 4 4 4 3 3 2 2 2 3 4 3 4 5 5 4 4 5 5 6 3 3 4 2 3 3 2 3 4 3 4 4 3 4 2 3 3 4 4 3 3 3 2 2 2 2 2 2 2 3 6 6 7 9 9 9 9 9 10 9 9 8 9 10 8 9
6 8 7 7 7 8 7 3 4 5 5 6 6 5 4 3 2 3 2 1 1 4 3 2 4 4 3 1 2 3 2 2 4 4 3 2 3 5 5 4 2 2 1 2 1 4 3 2 3 3 2 2 3 3 3 3 3 4 4 3 3 3 3 3 2 2 2 2 1 5 5 5 6 7 8 9 10 10 10 10 10 9 7 11 7
8 9 8 7 7 8 7 4 3 5 4 5 5 5 5 3 2 2 2 6 1 3 4 4 4 6 6 5 5 2 2 3 5 4 2 2 2 4 1 2 3 4 3 2 3 4 3 2 2 2 3 3 2 3 1 4 3 4 3 3 3 3 2 2 3 3 2 2 3 4 4 2 4 6 6 7 9 10 10 10 11 11 11 8 9
8 8 8 7 7 8 5 4 1 3 4 5 5 4 4 4 6 7 6 8 8 8 9 7 7 6 6 6 6 4 4 4 3 3 5 5 3 2 5 5 5 2 3 5 2 2 3 3 3 2 1 2 3 2 1 2 2 2 3 2 1 2 2 2 2 2 3 3 2 1 4 1 3 5 6 7 7 8 9 10 10 11 11 11 8
8 9 8 8 8 8 8 4 2 2 3 5 3 5 8 10 9 8 8 8 7 8 8 7 7 7 6 7 7 6 5 5 5 5 4 5 5 6 5 4 4 5 4 4 2 3 4 4 2 1 1 2 2 1 2 1 1 2 2 1 1 1 1 1 1 2 2 2 2 3 2 5 2 3 5 6 7 8 8 10 9 11 11 11 11
7 9 8 8 8 8 8 10 2 3 3 10 10 9 9 9 9 7 8 8 8 8 7 8 8 7 8 7 7 7 7 7 6 5 5 6 5 5 5 5 5 6 5 4 4 5 5 3 3 1 1 1 1 1 2 0 0 1 1 1 1 1 1 0 1 1 1 1 2 2 2 1 7 4 3 4 6 7 9 8 10 11 11 12 11
6 7 8 9 10 8 7 8 8 9 11 10 9 8 8 8 9 9 8 7 8 8 8 7 7 7 7 8 8 8 7 7 6 5 6 6 6 6 6 5 5 4 3 4 5 4 3 3 2 2 1 0 0 1 1 2 1 0 1 1 1 2 1 1 1 1 1 1 1 1 1 2 2 7 5 3 3 4 6 8 10 10 11 12 13
6 6 9 9 8 5 5 6 8 10 10 9 9 8 7 8 8 8 8 7 7 7 7 6 6 6 7 9 8 8 7 7 5 6 6 6 6 7 7 6 4 3 3 2 3 1 2 2 1 2 1 1 2 2 3 3 3 1 1 0 2 1 1 2 1 1 1 1 1 1 1 1 1 1 2 7 4 1 5 8 8 9 10 11 12
6 7 9 8 8 7 6 7 8 10 10 10 10 9 7 8 8 8 8 7 8 8 8 7 7 7 7 9 9 9 9 8 7 6 7 6 6 6 6 5 4 4 5 4 4 4 2 1 1 1 0 1 2 2 2 4 4 3 3 2 2 2 2 2 1 1 1 1 1 1 1 1 2 2 2 3 5 4 4 5 6 7 8 9 10
8 7 7 7 8 9 9 9 10 12 11 10 10 9 10 10 9 9 9 9 9 9 9 8 8 8 9 9 10 10 9 9 8 7 7 7 7 7 7 6 5 5 5 5 4 4 4 3 5 6 5 3 3 4 4 4 4 4 4 4 4 3 4 3 1 1 1 2 2 1 2 2 2 3 3 2 3 3 4 3 6 7 7 7 8
6 6 6 6 8 8 8 11 11 11 12 12 11 11 11 11 11 10 10 10 9 9 8 8 8 9 9 9 10 10 11 10 10 9 8 8 8 8 7 7 6 6 5 4 5 4 4 3 5 6 5 5 6 7 6 6 6 6 5 4 3 3 3 3 3 3 1 1 2 2 2 2 2 3 2 4 3 3 2 1 4 7 6 6 7
5 6 6 6 6 7 8 10 10 10 9 9 10 10 10 10 10 9 10 10 10 9 8 8 8 8 8 9 9 9 10 11 11 9 9 8 8 8 7 8 6 6 5 6 6 6 6 6 5 6 7 7 6 6 7 6 5 5 5 5 4 3 3 3 3 1 2 4 4 4 4 3 4 5 4 3 4 4 4 4 5 5 5 4 6
5 6 6 6 6 6 7 9 8 8 9 10 10 11 11 11 10 10 11 11 10 9 8 9 9 9 9 9 9 8 8 9 9 8 8 7 7 7 7 7 7 7 7 7 7 7 6 6 7 5 6 7 6 6 6 6 5 5 4 5 5 5 3 3 3 3 2 3 3 2 2 4 4 4 4 3 4 5 5 5 5 5 4 1 5
3 4 5 6 7 7 6 6 7 8 7 8 7 7 7 8 9 8 10 10 9 9 9 9 8 9 9 9 10 9 9 9 9 8 7 7 6 7 8 8 8 8 8 9 8 8 8 6 7 7 6 6 7 6 7 7 5 5 6 6 4 2 5 4 3 2 2 3 3 3 4 5 5 4 4 3 3 4 4 5 5 6 6 8 10
4 5 6 7 7 6 5 7 6 5 5 6 6 7 7 7 8 9 10 8 8 8 9 9 9 9 11 11 11 10 10 10 10 10 10 9 9 8 9 9 9 9 9 9 9 9 9 8 4 6 7 6 7 7 9 8 5 5 5 4 1 6 6 4 3 5 3 3 3 4 5 5 5 5 4 3 3 3 3 4 4 4 4 4 6
5 5 6 6 5 5 6 6 6 7 7 7 7 7 7 6 7 8 8 8 7 8 9 9 9 9 11 11 10 11 11 11 10 10 10 9 9 8 9 9 9 9 9 9 10 9 10 10 8 4 6 7 7 9 9 9 6 7 6 4 2 5 5 4 9 6 6 2 3 4 4 5 6 6 4 5 5 5 4 4 4 4 4 4 4
4 5 5 5 5 5 6 6 6 6 7 7 7 7 7 8 9 9 9 9 9 9 9 9 9 10 11 11 11 11 11 11 11 10 9 10 10 9 9 9 10 9 9 9 10 11 10 11 11 9 5 6 6 8 10 11 7 9 5 3 3 1 2 2 10 5 4 5 4 5 5 6 8 7 5 5 5 6 5 5 5 5 5 5 5
3 4 4 5 5 5 6 7 7 7 8 8 9 10 11 12 12 11 10 10 9 10 11 10 11 12 12 11 11 10 11 11 11 11 10 10 10 9 9 9 9 9 8 9 10 10 11 10 11 11 9 7 8 8 9 11 10 10 7 6 4 3 3 6 11 4 3 6 6 6 6 6 8 7 5 5 6 5 6 6 6 5 5 5 5
4 5 5 4 4 6 7 8 8 9 8 9 10 11 11 11 11 12 11 11 10 9 9 10 10 10 10 10 10 10 11 10 10 11 10 10 10 9 9 9 9 9 8 9 9 10 9 9 10 10 11 8 8 7 8 10 12 10 7 6 5 5 6 7 11 0 7 5 5 6 5 7 9 8 5 5 5 5 6 6 6 6 6 5 4
5 5 4 5 6 6 7 8 8 8 8 9 9 8 8 8 7 8 8 8 9 8 8 9 8 9 9 8 10 11 10 10 10 11 11 10 10 10 9 9 9 8 8 8 8 9 10 10 10 9 10 10 7 8 8 7 9 10 9 7 5 4 6 8 6 5 9 2 5 7 6 7 8 8 4 6 6 5 7 6 6 6 6 5 4
5 4 4 6 6 7 7 7 7 6 6 6 4 4 5 6 8 8 9 8 10 8 8 8 8 8 8 9 9 10 10 10 10 10 10 10 10 9 9 9 9 9 8 8 9 9 8 9 8 9 9 8 8 8 8 7 6 8 7 7 6 4 4 5 5 7 8 3 5 6 5 6 8 7 5 7 6 5 7 6 6 6 5 4 4
4 4 5 5 7 7 7 7 6 6 5 5 6 6 8 8 9 10 9 10 10 10 9 9 8 8 9 10 9 9 10 10 10 10 10 10 9 9 9 9 9 8 8 8 8 8 7 7 8 8 7 7 8 7 7 7 7 6 7 7 6 5 4 3 3 5 6 10 10 3 1 7 5 4 5 7 6 6 7 6 5 6 5 4 4
4 4 5 5 6 6 7 7 7 7 7 8 8 9 8 9 9 9 11 9 10 9 8 8 8 8 10 8 9 9 9 10 10 10 10 10 9 9 9 8 8 8 7 7 7 7 8 8 8 8 8 7 7 7 6 6 6 6 6 6 6 6 5 4 4 4 5 8 8 8 11 5 3 2 5 5 5 6 6 6 5 5 5 4 4
4 5 5 5 5 6 7 8 8 7 7 9 9 10 9 9 10 10 11 10 9 9 8 8 8 7 9 8 8 7 7 8 8 9 9 9 9 8 8 8 8 7 7 7 7 7 7 7 7 7 7 7 6 6 6 6 5 5 6 5 5 5 5 5 5 6 5 4 8 11 9 13 12 6 5 5 7 6 5 5 4 5 5 3 3
4 5 5 5 6 6 7 9 8 7 8 9 10 10 9 9 9 10 11 11 10 9 9 8 8 8 8 8 8 7 7 7 7 8 9 8 8 8 8 8 7 7 7 7 7 6 6 6 6 7 8 8 6 6 6 6 6 5 6 5 5 5 6 6 7 6 7 7 8 8 9 8 10 13 6 6 7 6 5 4 5 5 5 4 4
Wind_Direction
152 172 137 138 152 168 156 157 152 149 147 145 136 132 129 128 126 121 123 115 123 122 122 120 116 116 111 107 103 100 99 105 102 98 90 95 99 96 90 86 82 80 77 72 66 67 65 59 57 54 51 50 49 47 47 46 45 45 44 44 44 44 43 44 41 39 35 46 59 65 64 63 59 58 59 57 54 47 40 38 41 53 59 49 57
147 173 139 149 150 168 160 159 155 152 149 147 140 132 129 129 129 127 123 124 126 124 125 124 120 114 115 111 106 97 96 97 104 104 98 91 89 89 87 87 84 81 76 72 70 67 66 61 57 55 53 51 48 46 43 41 40 40 41 41 40 40 41 40 38 34 28 32 41 68 52 63 61 61 59 59 58 51 47 44 43 53 48 50 52
141 162 148 147 151 141 164 157 158 154 155 147 139 134 129 128 127 125 122 127 125 130 127 127 121 116 111 107 105 102 98 93 104 109 108 105 101 101 98 92 87 86 82 81 77 74 73 69 65 59 55 51 48 45 41 39 36 35 36 36 36 36 37 40 36 25 18 10 8 67 94 69 59 61 61 58 58 54 50 49 47 53 50 50 44
147 158 151 132 144 137 167 154 157 159 153 145 139 136 127 127 128 124 125 123 128 125 130 126 124 122 118 118 108 103 103 99 99 113 115 111 106 102 99 97 95 89 87 85 81 76 72 67 63 59 55 49 46 42 39 35 33 32 31 32 31 31 33 34 30 15 351 351 332 286 55 73 66 60 62 61 56 53 51 50 49 50 52 57 50
150 159 149 145 161 142 177 150 158 162 153 147 144 136 130 129 130 128 127 127 127 130 127 126 127 120 115 112 112 109 104 101 99 107 119 115 112 108 107 105 102 101 93 86 81 77 69 65 60 55 49 45 41 38 36 33 29 28 27 27 27 27 26 24 18 3 341 319 327 308 66 71 77 58 62 61 60 51 51 50 48 45 43 47 51
150 153 151 153 167 160 153 156 160 161 154 148 145 140 135 133 133 132 128 130 132 132 126 128 123 119 115 113 115 108 104 103 102 104 116 118 116 111 106 104 101 97 97 91 84 78 72 67 61 55 47 39 33 28 25 25 28 26 23 23 24 24 22 12 1 350 317 317 290 305 58 64 59 63 63 65 61 56 51 49 46 41 37 34 41
158 157 157 158 174 158 136 164 160 163 154 149 151 146 140 138 136 137 134 132 137 134 129 128 124 122 121 121 119 118 110 105 101 105 115 122 116 111 108 105 101 99 87 88 85 78 69 63 58 53 49 42 34 25 20 17 17 20 22 20 18 23 24 18 360 342 316 296 346 32 73 79 80 77 65 62 62 59 56 54 50 44 37 33 28
149 169 160 154 185 135 145 162 160 163 156 152 152 147 142 141 139 139 139 138 144 139 134 133 129 130 124 121 124 124 119 114 112 111 119 120 117 112 113 109 106 100 97 92 85 74 61 57 54 52 51 45 37 28 20 16 14 13 17 18 15 21 28 14 352 325 311 312 21 24 44 68 75 77 68 63 57 48 44 52 48 47 43 36 30
160 173 170 157 139 137 137 161 160 161 161 153 152 146 144 143 141 140 141 148 146 147 141 136 135 136 132 132 137 135 132 128 117 111 114 126 127 126 121 110 97 90 96 91 82 73 62 57 55 51 49 45 38 30 21 16 15 15 14 13 15 22 15 7 340 315 277 358 0 37 24 43 73 75 70 70 63 54 45 37 36 35 38 37 33
166 165 173 161 130 120 133 147 169 166 163 156 152 149 149 144 144 144 145 152 149 152 143 138 151 140 150 154 150 153 142 135 123 123 123 130 131 125 119 116 115 110 92 86 80 72 56 56 56 48 45 42 36 29 22 20 19 15 15 17 18 21 9 348 321 286 290 39 38 50 43 347 72 66 69 70 68 63 56 49 42 37 35 34 31
149 164 160 149 121 118 111 149 157 162 166 160 154 149 152 146 146 147 149 154 159 159 149 151 154 155 168 166 166 134 165 142 133 129 132 135 119 122 125 116 103 101 90 59 55 72 68 63 52 47 44 39 34 28 25 24 22 19 19 21 27 18 359 326 312 258 359 7 21 64 99 242 69 65 76 74 71 64 59 50 43 38 33 30 27
132 147 165 86 102 107 101 123 162 167 162 157 167 151 151 149 151 147 154 159 163 161 159 153 160 171 180 169 164 161 137 162 145 134 126 116 124 119 116 106 96 86 69 57 65 73 68 58 48 44 42 39 33 30 30 27 27 26 23 25 28 15 351 329 302 334 331 39 50 5 17 31 60 75 70 70 67 61 55 49 42 35 31 27 25
78 112 177 121 127 101 82 80 139 168 164 161 169 161 155 155 158 152 156 165 164 163 167 158 159 189 173 159 168 168 154 162 148 136 133 140 135 132 124 100 97 82 74 67 67 67 64 53 46 42 40 37 33 31 31 32 33 33 29 28 27 9 345 325 304 335 12 17 46 42 31 77 64 64 70 64 60 57 50 45 40 34 27 26 26
100 103 150 184 107 113 86 28 107 163 170 170 167 169 162 160 161 161 159 168 170 156 179 164 165 180 158 151 181 179 150 167 158 148 147 137 146 139 132 119 96 86 80 76 72 68 61 55 49 43 40 38 34 31 32 34 36 37 36 36 24 356 349 307 329 12 48 46 33 10 347 65 60 56 58 55 57 52 48 40 34 29 24 29 27
84 82 115 190 134 149 118 36 32 90 162 175 169 169 171 166 165 163 164 169 173 160 170 181 167 172 151 167 169 39 12 109 141 161 128 120 120 101 112 107 97 87 84 79 73 68 61 57 52 47 42 40 36 34 32 35 38 34 32 28 18 353 346 333 23 51 47 11 66 278 69 63 45 39 40 46 53 46 43 26 25 26 23 30 29
43 85 130 156 184 138 165 138 71 41 55 160 166 167 171 174 175 165 171 172 170 165 165 164 164 156 135 148 118 87 107 114 129 142 134 120 112 134 123 108 96 90 86 82 79 72 65 59 55 49 44 41 39 35 33 35 37 36 30 24 13 357 340 342 14 358 90 98 72 342 79 66 34 35 21 15 34 46 25 8 22 23 24 27 31
55 31 140 132 141 187 177 179 172 112 84 81 150 163 176 177 182 173 176 172 165 168 164 165 161 146 144 122 125 132 79 118 152 140 124 119 111 83 60 115 102 97 91 91 87 80 72 64 59 50 45 44 41 39 36 34 34 34 30 18 10 350 332 328 23 36 46 40 1 15 53 33 25 24 26 32 45 34 358 6 26 24 24 28 30
56 66 111 147 159 205 194 191 162 187 205 161 145 173 165 184 180 176 166 169 164 164 162 156 156 144 130 111 125 124 128 106 122 138 144 121 115 114 112 107 111 107 103 101 98 89 80 74 66 57 49 45 44 40 36 33 30 30 25 14 357 343 320 316 24 47 60 323 97 81 43 18 17 7 22 30 19 4 11 28 28 20 22 32 34
94 82 71 121 153 191 215 214 203 203 212 208 207 176 175 168 184 170 166 167 166 157 159 162 151 137 120 98 107 129 131 139 132 125 113 124 124 135 147 133 126 117 117 113 105 96 91 85 77 67 58 51 49 45 40 36 31 26 18 6 337 319 314 297 38 50 198 93 29 55 25 14 8 356 344 7 3 21 32 23 23 25 25 40 30
88 103 125 106 154 198 206 211 219 214 207 212 212 196 170 166 170 168 180 166 162 160 167 167 155 142 136 132 131 132 143 137 142 139 135 130 146 149 144 131 126 124 123 119 109 105 104 100 91 83 72 66 68 64 50 42 34 25 13 348 333 310 288 26 26 29 22 48 351 46 10 9 1 354 349 340 353 19 32 24 27 21 28 31 33
83 83 66 102 162 210 217 217 217 222 217 212 219 205 160 167 168 169 176 175 157 162 169 161 150 136 152 160 157 202 178 152 165 156 130 140 158 153 144 141 136 132 132 121 115 113 116 114 107 101 92 93 99 95 77 56 46 26 0 343 314 304 30 6 357 34 18 28 52 30 7 9 358 351 344 7 2 30 22 20 22 23 19 10 27
49 44 66 41 348 206 212 228 219 220 223 215 221 225 157 185 204 188 178 176 172 181 177 191 184 176 175 162 219 223 217 183 174 141 154 128 146 173 139 135 137 136 138 131 119 122 125 122 122 113 119 121 165 135 96 114 77 35 349 312 318 23 16 2 355 34 7 22 53 18 7 8 1 348 348 353 23 35 17 24 23 33 17 16 360
32 8 24 13 5 339 298 227 229 235 225 218 213 223 196 193 211 205 189 187 191 189 207 210 214 215 191 202 230 229 228 186 184 150 140 152 154 178 149 141 147 148 153 127 126 124 124 128 119 130 137 176 127 86 71 32 74 170 278 352 25 17 358 1 354 14 40 18 50 16 8 6 3 355 342 354 11 40 18 348 356 38 3 7 342
5 356 351 18 4 347 342 310 240 226 243 218 212 211 214 211 214 196 199 193 196 201 209 209 208 203 235 203 226 253 233 112 87 105 119 156 145 170 172 151 155 160 145 130 118 113 112 106 132 159 187 100 70 78 75 74 52 35 37 18 26 9 5 360 7 355 7 61 52 23 9 0 0 354 340 351 12 42 5 336 337 11 310 311 325
4 331 6 356 357 347 340 307 280 215 237 231 216 218 210 214 210 208 196 196 193 197 198 205 202 252 247 221 212 203 211 190 156 157 190 159 160 173 180 182 170 163 176 146 153 145 157 146 158 234 41 45 48 50 56 66 51 48 50 31 16 14 6 8 360 358 354 28 66 37 13 1 353 354 351 335 358 45 359 327 331 279 275 260 286
1 358 354 344 359 339 333 315 290 242 205 221 217 216 221 210 210 208 202 194 192 193 189 183 200 175 292 306 303 242 218 334 220 167 198 176 164 182 190 204 200 185 203 200 172 156 154 69 42 40 35 34 31 37 41 48 60 39 43 30 14 11 14 8 357 357 353 345 72 51 24 6 353 346 341 331 324 355 350 333 307 286 259 247 257
354 1 349 347 346 340 331 310 266 253 203 207 207 220 214 222 201 206 216 195 200 212 190 176 135 142 180 293 287 257 209 196 240 222 190 186 167 182 204 201 213 219 86 357 28 67 60 56 53 60 44 41 38 38 53 60 67 68 53 32 12 0 7 358 356 356 339 336 85 71 40 12 358 347 338 326 323 330 337 342 337 328 335 283 229
1 357 355 349 347 343 324 294 228 236 195 198 201 199 200 220 159 122 269 22 256 199 171 115 95 78 65 126 313 296 251 263 284 252 215 235 188 184 152 218 193 85 109 296 187 88 92 95 94 92 76 67 55 15 35 50 64 54 73 49 14 356 0 347 348 346 326 333 343 96 55 15 360 348 337 327 321 322 331 330 338 335 333 350 260
5 359 354 354 352 344 328 315 198 219 192 178 198 189 187 190 155 17 26 41 355 26 46 61 72 66 47 40 27 2 290 243 222 244 225 181 26 24 271 169 149 88 72 101 116 133 133 116 96 68 47 31 30 36 54 44 37 49 37 41 22 0 354 340 346 335 320 317 320 104 78 32 348 342 337 332 325 321 323 327 328 330 339 358 1
358 356 353 354 346 337 346 346 200 185 187 171 174 181 171 177 78 62 64 51 52 57 57 56 56 60 53 41 39 14 30 32 3 27 35 26 27 36 36 47 71 72 130 124 129 137 110 115 93 105 107 72 68 50 346 79 87 72 48 30 37 15 353 345 340 339 340 324 314 104 127 123 321 324 333 332 328 328 327 326 327 328 334 339 344
353 354 349 344 333 340 342 3 11 54 174 171 102 71 53 63 67 65 57 57 52 57 55 60 61 53 52 46 47 37 44 56 63 54 70 64 61 61 68 82 100 108 98 94 94 67 63 63 68 118 93 82 80 66 333 74 87 90 81 23 10 317 27 336 331 336 323 330 335 322 170 171 219 277 313 321 329 336 334 332 328 331 330 332 338
356 348 344 334 342 352 352 343 40 48 59 59 65 60 64 63 63 66 63 59 59 58 55 55 52 48 42 44 46 44 45 46 51 59 77 72 74 72 62 55 68 43 29 43 63 60 70 74 85 62 66 82 62 72 308 249 148 128 156 188 206 208 245 335 269 289 316 317 301 303 314 207 188 218 232 304 331 337 342 341 344 338 335 334 335
351 343 345 345 357 356 15 13 36 51 65 71 72 71 72 75 72 74 70 62 65 64 59 52 54 58 57 49 42 47 54 55 53 52 56 77 83 75 69 59 62 71 70 67 71 87 111 127 124 172 97 135 2 359 216 280 268 177 215 189 267 223 205 247 221 216 251 260 274 284 299 298 311 189 194 227 262 330 350 358 355 350 346 343 343
347 345 352 359 350 357 26 41 49 54 57 64 70 68 65 73 68 65 59 60 64 67 63 58 50 51 55 51 54 49 54 61 71 73 66 69 69 74 69 60 41 32 19 67 117 115 85 65 146 178 166 299 321 354 329 332 333 318 281 167 275 295 278 259 251 256 226 236 247 275 278 311 305 331 155 189 196 134 32 12 359 355 350 351 346
360 356 0 348 4 13 33 52 48 64 65 63 67 62 63 73 70 64 61 59 59 59 53 48 43 42 46 46 42 45 42 44 48 64 76 77 74 69 63 55 30 39 41 20 37 44 46 52 293 313 82 301 317 335 323 322 333 327 327 313 299 329 279 256 253 251 259 298 284 295 315 311 343 337 4 344 155 132 71 25 357 348 346 349 344
11 4 346 4 19 27 50 58 58 66 63 64 65 67 64 65 65 61 60 56 60 57 52 48 44 42 45 44 36 35 39 50 58 56 57 61 62 60 60 53 40 35 36 25 27 41 38 23 21 3 349 358 0 1 341 336 338 335 324 316 314 313 311 299 295 291 29 342 345 352 345 0 356 12 328 314 348 100 75 23 348 337 338 340 341
16 3 2 11 26 26 46 64 59 67 75 76 73 70 69 68 68 66 65 60 59 58 55 52 50 47 46 45 38 39 39 36 36 42 54 54 52 53 54 55 49 50 47 46 42 32 28 52 44 25 15 355 27 15 4 360 350 330 320 308 297 299 294 325 337 24 41 1 8 9 2 23 24 340 354 358 360 339 110 20 323 324 324 326 336
19 24 17 19 42 38 43 60 62 58 63 71 74 74 73 72 70 69 66 63 57 56 53 52 50 47 47 46 41 42 46 44 38 41 52 50 49 48 47 44 44 45 50 50 44 36 37 25 46 48 35 30 30 19 3 344 326 308 308 308 308 303 313 313 38 23 34 27 37 26 20 25 38 20 13 8 360 6 350 344 308 292 272 298 331
26 24 25 44 57 49 59 68 75 72 75 78 80 80 77 74 73 68 63 60 56 52 50 53 48 45 45 44 43 43 41 45 48 42 49 48 50 50 48 46 47 46 44 42 42 38 41 44 35 46 68 46 29 21 351 324 313 303 303 312 312 313 324 30 24 43 38 38 48 67 43 49 54 37 26 10 24 3 5 356 359 355 8 356 324
40 50 51 57 66 60 57 57 66 84 80 75 70 71 75 73 72 70 65 58 56 53 50 50 45 45 38 41 42 43 39 40 43 51 57 59 60 55 54 47 45 46 46 42 35 30 22 32 44 30 47 62 36 10 348 330 310 322 330 317 314 340 57 44 60 36 15 32 54 37 46 52 36 28 22 18 25 18 7 6 2 357 350 351 340
63 66 75 69 60 68 65 64 67 78 87 88 79 85 87 87 77 71 74 64 61 60 58 51 48 43 39 40 38 37 35 36 34 38 44 51 52 51 50 51 50 47 46 42 36 30 22 14 31 57 35 44 32 11 356 327 346 340 333 317 323 88 82 110 56 355 21 56 54 45 53 41 29 19 17 21 24 17 8 4 2 349 346 346 341
52 59 64 66 68 67 66 66 65 70 75 78 80 72 66 75 89 80 80 71 61 58 57 50 50 47 43 41 39 36 37 37 32 33 39 43 48 50 48 44 46 50 47 42 35 30 25 23 8 44 61 48 44 16 9 352 12 353 334 342 63 88 103 110 23 34 55 64 73 60 58 50 32 12 3 5 10 5 9 1 356 345 342 340 337
63 65 69 82 78 75 72 72 69 75 75 80 83 82 82 82 88 91 90 85 72 72 70 66 59 55 49 44 41 40 39 39 37 36 36 36 42 48 48 47 48 47 49 44 37 35 27 24 25 16 20 54 53 33 23 20 2 337 321 324 24 315 143 157 13 29 59 43 59 63 41 43 28 9 357 13 10 5 5 2 351 344 342 338 334
79 66 59 69 71 74 78 81 79 75 76 72 83 87 86 87 86 91 88 88 92 84 78 68 60 57 52 47 44 43 44 44 40 42 44 41 42 48 51 50 52 52 52 50 42 38 31 27 26 25 15 36 29 37 33 27 20 5 17 346 310 334 358 21 348 331 30 51 47 45 39 35 22 4 0 17 9 2 3 356 351 345 342 334 332
65 54 44 57 66 70 74 80 81 82 86 92 93 99 99 95 96 101 102 100 91 85 79 70 64 62 61 49 47 47 48 48 45 43 44 45 43 44 47 50 51 49 52 52 48 41 35 32 27 30 26 23 33 25 37 37 33 27 22 3 3 11 21 336 327 211 26 360 45 29 37 31 20 355 359 16 4 1 4 349 348 343 339 334 332
71 47 44 58 71 75 77 80 83 83 87 93 101 104 109 117 121 113 107 97 85 76 72 75 72 66 64 62 54 50 48 47 44 44 42 43 43 42 43 47 48 46 47 50 49 44 37 33 29 29 28 21 30 32 25 31 43 31 33 49 28 6 339 328 346 329 336 349 26 13 4 29 10 344 2 9 354 4 2 340 343 338 334 335 337
69 59 64 67 69 71 72 74 75 73 67 74 88 103 90 82 85 88 92 95 96 83 86 84 84 80 76 70 63 54 50 49 46 44 42 41 43 42 43 46 47 48 46 48 46 44 41 35 31 35 34 26 23 42 32 16 28 35 27 28 21 12 358 358 356 327 331 338 347 337 350 10 359 333 353 358 340 357 351 335 331 336 324 328 328
80 79 72 70 72 76 78 77 78 78 70 72 73 83 92 91 93 91 89 90 93 99 93 89 87 85 81 74 69 61 52 49 48 44 42 40 39 40 39 43 46 44 44 47 45 39 39 36 34 33 37 37 31 32 33 27 26 17 13 18 16 0 5 35 13 354 318 312 318 317 37 347 344 331 350 340 334 347 336 324 325 326 320 316 323
82 81 80 79 83 85 88 89 89 85 78 78 81 83 91 97 99 101 96 93 98 98 98 94 90 87 83 79 75 70 64 54 48 46 43 41 39 40 38 41 42 41 41 45 43 41 41 37 33 31 28 34 38 28 27 25 24 17 3 8 10 8 356 5 359 354 333 315 307 331 323 319 297 290 343 321 324 329 321 308 316 314 303 310 325
94 94 95 95 95 99 102 100 94 91 92 90 89 90 91 96 97 100 106 107 104 104 99 96 91 88 83 79 73 69 64 61 54 46 44 42 38 37 38 39 40 38 39 39 39 41 39 39 39 38 30 30 32 32 30 12 10 22 5 359 5 359 357 354 358 346 325 308 313 320 328 329 328 334 327 321 319 310 305 298 303 304 292 306 312
110 115 108 110 113 113 111 104 99 98 96 96 95 93 93 95 98 102 104 106 105 106 104 95 91 87 83 79 75 71 66 62 56 49 42 38 42 39 40 39 38 38 37 34 33 31 36 37 36 40 38 32 23 24 29 22 7 14 10 6 7 5 353 350 345 344 332 326 322 317 320 321 319 315 326 315 302 291 281 282 294 292 288 294 301